When you browse on this site, cookies collect data to enhance your experience and personalize the content and advertising you see.
Visit our Privacy Policy to learn more. By continuing to use the site, you agree to this use of cookies and data.
  • In Latvia
  • List of Countries
  • For 7 days
  • Water Temperature
  • Satellite Maps
  • Weather Map
  • Weather Widgets
  • user-avatar
    Login

    Hourly Weather Mayrhofen

    Today, 19 March, Tuesday

    Time Temperature Precipitation Wind Pressure Humidity
    00:00 -14°C° 0 mm 2 mps 614 mmHg 85%
    01:00 -11°C° 0 mm 1 mps 615 mmHg 82%
    02:00 -11°C° 0 mm 1 mps 614 mmHg 83%
    03:00 -11°C° 0 mm 1 mps 614 mmHg 85%
    04:00 -12°C° 0 mm 1 mps 614 mmHg 86%
    05:00 -11°C° 0 mm 1 mps 614 mmHg 86%
    06:00 -11°C° 0 mm 1 mps 615 mmHg 87%
    07:00 -9°C° 0 mm 2 mps 616 mmHg 87%
    08:00 -8°C° 0 mm 2 mps 617 mmHg 83%
    09:00 -6°C° 0 mm 2 mps 617 mmHg 79%
    10:00 -5°C° 0 mm 2 mps 618 mmHg 75%
    11:00 -4°C° 0.1 mm 2 mps 618 mmHg 74%
    12:00 -4°C° 0.1 mm 2 mps 618 mmHg 73%
    13:00 -4°C° 0.1 mm 3 mps 618 mmHg 72%
    14:00 -4°C° 0.1 mm 3 mps 618 mmHg 73%
    15:00 -4°C° 0.1 mm 3 mps 618 mmHg 74%
    16:00 -4°C° 0.1 mm 3 mps 618 mmHg 75%
    17:00 -5°C° 0.1 mm 2 mps 618 mmHg 81%
    18:00 -6°C° 0.1 mm 2 mps 618 mmHg 87%
    19:00 -8°C° 0.1 mm 2 mps 618 mmHg 93%
    20:00 -8°C° 0 mm 2 mps 619 mmHg 93%
    21:00 -7°C° 0 mm 1 mps 619 mmHg 93%
    22:00 -8°C° 0 mm 1 mps 619 mmHg 93%
    23:00 -8°C° 0 mm 1 mps 620 mmHg 92%

    Tomorrow, 20 March, Wednesday

    Time Temperature Precipitation Wind Pressure Humidity
    00:00 -9°C° 0 mm 1 mps 620 mmHg 92%
    01:00 -9°C° 0 mm 1 mps 620 mmHg 91%
    02:00 -10°C° 0 mm 1 mps 620 mmHg 90%
    03:00 -10°C° 0 mm 1 mps 619 mmHg 90%
    04:00 -11°C° 0 mm 1 mps 619 mmHg 89%
    05:00 -11°C° 0 mm 1 mps 619 mmHg 85%
    06:00 -11°C° 0 mm 1 mps 620 mmHg 81%
    07:00 -11°C° 0 mm 1 mps 620 mmHg 78%
    08:00 -9°C° 0 mm 2 mps 621 mmHg 72%
    09:00 -6°C° 0 mm 2 mps 622 mmHg 66%
    10:00 -4°C° 0 mm 2 mps 623 mmHg 59%
    11:00 -3°C° 0 mm 2 mps 623 mmHg 61%
    12:00 -2°C° 0 mm 2 mps 623 mmHg 63%
    13:00 -1°C° 0 mm 2 mps 624 mmHg 64%
    14:00 -1°C° 0 mm 2 mps 623 mmHg 66%
    15:00 -1°C° 0 mm 2 mps 623 mmHg 67%
    16:00 -1°C° 0 mm 2 mps 623 mmHg 69%
    17:00 -4°C° 0 mm 2 mps 623 mmHg 75%
    18:00 -6°C° 0 mm 2 mps 622 mmHg 82%
    19:00 -7°C° 0 mm 1 mps 621 mmHg 88%
    20:00 -8°C° 0 mm 1 mps 622 mmHg 84%
    21:00 -8°C° 0 mm 1 mps 622 mmHg 80%
    22:00 -8°C° 0 mm 1 mps 622 mmHg 76%
    23:00 -8°C° 0 mm 1 mps 622 mmHg 71%

    Day after tomorrow, 21 March, Thursday

    Time Temperature Precipitation Wind Pressure Humidity
    00:00 -8°C° 0 mm 1 mps 622 mmHg 67%
    01:00 -8°C° 0 mm 1 mps 622 mmHg 62%
    02:00 -8°C° 0 mm 1 mps 622 mmHg 59%
    03:00 -8°C° 0 mm 1 mps 622 mmHg 55%
    04:00 -8°C° 0 mm 1 mps 622 mmHg 52%
    05:00 -7°C° 0 mm 1 mps 622 mmHg 50%
    06:00 -7°C° 0 mm 1 mps 622 mmHg 47%
    07:00 -7°C° 0 mm 2 mps 623 mmHg 45%
    08:00 -2°C° 0 mm 1 mps 624 mmHg 49%
    09:00 +1°C° 0 mm 1 mps 625 mmHg 54%
    10:00 +4°C° 0 mm 1 mps 626 mmHg 59%
    11:00 +5°C° 0 mm 1 mps 626 mmHg 63%
    12:00 +6°C° 0 mm 1 mps 626 mmHg 67%
    13:00 +7°C° 0 mm 1 mps 626 mmHg 71%
    14:00 +7°C° 0 mm 1 mps 625 mmHg 72%
    15:00 +7°C° 0 mm 1 mps 625 mmHg 74%
    16:00 +7°C° 0 mm 1 mps 625 mmHg 75%
    17:00 +4°C° 0 mm 1 mps 624 mmHg 71%
    18:00 +2°C° 0 mm 1 mps 623 mmHg 67%
    19:00 0°C° 0 mm 1 mps 623 mmHg 63%
    20:00 -1°C° 0 mm 1 mps 623 mmHg 60%
    21:00 -1°C° 0 mm 1 mps 623 mmHg 56%
    22:00 -4°C° 0 mm 2 mps 623 mmHg 53%
    23:00 -4°C° 0 mm 2 mps 623 mmHg 51%

    22 March, Friday

    Time Temperature Precipitation Wind Pressure Humidity
    00:00 -4°C° 0 mm 2 mps 623 mmHg 49%
    01:00 -4°C° 0 mm 2 mps 623 mmHg 46%
    02:00 -4°C° 0 mm 2 mps 622 mmHg 46%
    03:00 -4°C° 0 mm 2 mps 622 mmHg 46%
    04:00 -4°C° 0 mm 2 mps 622 mmHg 45%
    05:00 -4°C° 0 mm 2 mps 622 mmHg 45%
    06:00 -4°C° 0 mm 2 mps 622 mmHg 44%
    07:00 -3°C° 0 mm 2 mps 623 mmHg 44%
    08:00 -1°C° 0 mm 2 mps 623 mmHg 53%
    09:00 +3°C° 0 mm 2 mps 624 mmHg 61%
    10:00 +7°C° 0 mm 1 mps 625 mmHg 70%
    11:00 +8°C° 0 mm 1 mps 625 mmHg 69%
    12:00 +9°C° 0 mm 1 mps 625 mmHg 68%
    13:00 +10°C° 0 mm 1 mps 625 mmHg 67%
    14:00 +9°C° 0 mm 1 mps 625 mmHg 69%
    15:00 +9°C° 0 mm 1 mps 624 mmHg 70%
    16:00 +9°C° 0 mm 1 mps 624 mmHg 72%
    17:00 +7°C° 0 mm 1 mps 623 mmHg 68%
    18:00 +4°C° 0 mm 1 mps 622 mmHg 65%
    19:00 +2°C° 0 mm 1 mps 622 mmHg 62%
    20:00 +2°C° 0 mm 1 mps 622 mmHg 60%
    21:00 -1°C° 0 mm 2 mps 622 mmHg 59%
    22:00 -1°C° 0 mm 2 mps 622 mmHg 57%
    23:00 -2°C° 0 mm 2 mps 622 mmHg 56%

    23 March, Saturday

    Time Temperature Precipitation Wind Pressure Humidity
    00:00 -2°C° 0 mm 2 mps 622 mmHg 55%
    01:00 -2°C° 0 mm 2 mps 622 mmHg 54%
    02:00 0°C° 0 mm 1 mps 621 mmHg 54%
    03:00 0°C° 0 mm 1 mps 621 mmHg 53%
    04:00 -1°C° 0 mm 1 mps 621 mmHg 53%
    05:00 0°C° 0 mm 1 mps 621 mmHg 53%
    06:00 0°C° 0 mm 1 mps 621 mmHg 54%
    07:00 0°C° 0 mm 1 mps 622 mmHg 54%
    08:00 +3°C° 0 mm 1 mps 622 mmHg 59%
    09:00 +5°C° 0 mm 1 mps 623 mmHg 64%
    10:00 +7°C° 0 mm 0 mps 623 mmHg 69%
    11:00 +8°C° 0 mm 0 mps 624 mmHg 68%
    12:00 +8°C° 0 mm 0 mps 624 mmHg 66%
    13:00 +9°C° 0 mm 0 mps 624 mmHg 64%
    14:00 +9°C° 0 mm 0 mps 623 mmHg 65%
    15:00 +8°C° 0 mm 0 mps 623 mmHg 67%
    16:00 +9°C° 0 mm 1 mps 622 mmHg 68%
    17:00 +6°C° 0 mm 0 mps 622 mmHg 70%
    18:00 +4°C° 0 mm 0 mps 621 mmHg 71%
    19:00 +1°C° 0 mm 0 mps 620 mmHg 72%
    20:00 +2°C° 0 mm 1 mps 620 mmHg 70%
    21:00 +2°C° 0 mm 1 mps 620 mmHg 67%
    22:00 -1°C° 0 mm 2 mps 620 mmHg 65%
    23:00 -1°C° 0 mm 2 mps 620 mmHg 63%

    24 March, Sunday

    Time Temperature Precipitation Wind Pressure Humidity
    00:00 -1°C° 0 mm 2 mps 620 mmHg 62%
    01:00 -2°C° 0 mm 2 mps 620 mmHg 61%
    02:00 -2°C° 0 mm 2 mps 619 mmHg 61%
    03:00 -2°C° 0 mm 2 mps 619 mmHg 60%
    04:00 -2°C° 0 mm 2 mps 619 mmHg 60%
    05:00 -2°C° 0 mm 2 mps 619 mmHg 60%
    06:00 0°C° 0 mm 1 mps 619 mmHg 60%
    07:00 0°C° 0 mm 1 mps 619 mmHg 60%
    08:00 +3°C° 0 mm 1 mps 620 mmHg 61%
    09:00 +5°C° 0 mm 1 mps 621 mmHg 63%
    10:00 +7°C° 0 mm 1 mps 621 mmHg 65%
    11:00 +8°C° 0 mm 1 mps 621 mmHg 66%
    12:00 +8°C° 0 mm 1 mps 621 mmHg 67%
    13:00 +8°C° 0 mm 2 mps 621 mmHg 68%
    14:00 +7°C° 0 mm 2 mps 621 mmHg 70%
    15:00 +7°C° 0 mm 2 mps 620 mmHg 73%
    16:00 +6°C° 0 mm 2 mps 620 mmHg 76%
    17:00 +5°C° 0.1 mm 2 mps 620 mmHg 82%
    18:00 +4°C° 0.1 mm 2 mps 619 mmHg 88%
    19:00 +2°C° 0.1 mm 2 mps 619 mmHg 94%
    20:00 +2°C° 0.1 mm 2 mps 619 mmHg 94%
    21:00 +2°C° 0.1 mm 2 mps 620 mmHg 95%
    22:00 +1°C° 0.1 mm 2 mps 620 mmHg 96%
    23:00 +1°C° 0 mm 2 mps 620 mmHg 96%
    Show more